Showing default

ION SCV-015, 58469

Orbit data source: Space-Track

ION SCV-015, 58469 is a payload satellite owned by D-ORBIT (IT) in SSO that was launched on Fri, 01 Dec 2023 UTC via an FALCON 9 launch vehicle from the Air Force Western Test Range (AFWTR). Payload-class satellites include a variety of spacecraft equipped with specific instruments for various scientific and technological missions. These include communications satellites like Starlink; space stations such as the ISS; scientific satellites like the Hubble; Earth observation satellites from companies like Planet Labs, Umbra, and HawkEye 360; GPS; miniature CubeSats for education and research; and military/defense satellites.

Loading next visibility...
Identifier
58469, 2023-185H
Orbit
SSO
Country
Flag of ITIT
Related business
Manufacturer
D-ORBIT
Mission
Operational Commercial Technology
Bus & Motor
ION-SC, PM200
Mass
220 kg wet, 150 kg dry
Launch date (UTC)
2023-12-01 (3 years ago)
Launch vehicle
FALCON 9
Launch site
Air Force Western Test Range (AFWTR)
Object type
Payload
Rocket body
Debris
Shape & HBR
Box, 0.2 m
Radar Cross Section
0.240 m², Large (>1 m²)

Expand to show TLE details & history
Last TLE update: 1 week ago

TLE from 1 week ago
0 ION SCV-015
1 58469U 23185H   26155.27462494  .00008088  00000-0  25707-3 0  9996
2 58469  97.5762 243.6900 0010272 138.9213 221.2804 15.32853075139105
Epoch: 2026-06-04T06:35Z
TLE epoch observation values (Epoch: 2026-06-04T06:35:27.594Z)
Latitude
-0.00003°
Longitude
-107.89621°
Altitude
475.696 km
Speed
7.625 km/s
True Right ascension
16h 14m 45s
True Declination
0° 00' 00"
Sunlit
Object was in full shadow at epoch
Visualization orbit readout
Latitude
Unknown
Longitude
Unknown
Altitude
Unknown
Speed
Unknown
Apparent Right ascension
Unknown
Apparent Declination
Unknown
Sunlit
N/A
Visualization observer readout
Local Sidereal Time
07:22:20
Azimuth
Unknown
Elevation
Unknown
Doppler factor
Unknown
Orbital elements
Apogee altitude
471.29 km
Perigee altitude
457.232 km
Semi-major axis
6,842.398 km
Eccentricity
0.00103
Inclination
97.5762°
RAAN
243.69°
Arg. of periapsis
138.9213°
True anomaly
221.20282°
Mean anomaly
221.2804°
Eccentric anomaly
221.2416°
Mean motion
3.83469 °/min
Orbital period
93.88 mins
BSTAR
0.00025707
Loading maneuver chart data...
Computing Atmospheric mass density...
Loading historical data...
Loading historical data...
Loading historical data...
Loading historical data...
Loading historical data...
Loading historical data...
Loading historical data...

Documentation

Showing up to 5 results
|